GW2584 Weather Reports


time (UTC)temp
C
wind
direction
speed
KPH
gust
KPH
rain 1hr
cm
rain 24hr
cm
rain mn
cm
humidity
%
barometer
mb
20260509003059 15 48 4.8 9.7 0.00 0.00 0.00 45 1016.6
20260509001556 15 45 0.0 12.9 0.00 0.00 0.00 45 1016.6
20260509000055 15 58 3.2 14.5 0.00 0.00 0.00 45 1016.6
20260508234603 15 0 0.0 11.3 0.00 0.00 0.00 44 1016.6
20260508233104 15 330 3.2 12.9 0.00 0.00 0.00 44 1016.4
20260508231600 16 55 3.2 9.7 0.00 0.00 0.00 44 1016.5
20260508230057 16 34 3.2 8.0 0.00 0.00 0.00 43 1016.6
20260508224556 16 92 8.0 19.3 0.00 0.00 0.00 43 1016.5
20260508223055 16 4 1.6 11.3 0.00 0.00 0.00 44 1016.5
20260508221558 15 284 6.4 14.5 0.00 0.00 0.00 45 1016.6
20260508220056 15 0 4.8 17.7 0.00 0.00 0.00 45 1016.7
20260508214556 15 35 4.8 19.3 0.00 0.00 0.00 46 1016.8
20260508213058 15 295 3.2 17.7 0.00 0.00 0.00 45 1016.9
20260508211557 15 112 6.4 24.1 0.00 0.00 0.00 45 1016.9
20260508210100 15 32 6.4 16.1 0.00 0.00 0.00 48 1017.1
20260508204558 15 96 8.0 14.5 0.00 0.00 0.00 49 1017.1
20260508203101 15 16 6.4 17.7 0.00 0.00 0.00 48 1017.2
20260508201558 15 4 9.7 19.3 0.00 0.00 0.00 50 1017.2
20260508200113 14 51 11.3 22.5 0.00 0.00 0.00 50 1017.4
20260508194607 14 43 6.4 22.5 0.00 0.00 0.00 52 1017.6
20260508193119 14 104 6.4 16.1 0.00 0.00 0.00 50 1017.6
20260508191607 13 22 6.4 16.1 0.00 0.00 0.00 52 1017.7
20260508190114 12 2 6.4 20.9 0.00 0.00 0.00 54 1017.8
20260508184601 13 93 4.8 14.5 0.00 0.00 0.00 54 1018.0
20260508183100 13 15 8.0 19.3 0.00 0.00 0.00 53 1018.1
20260508181603 12 99 6.4 14.5 0.00 0.00 0.00 57 1018.2
20260508180106 12 18 3.2 17.7 0.00 0.00 0.00 54 1018.5
20260508174556 12 67 6.4 14.5 0.00 0.00 0.00 56 1018.5
20260508173056 11 344 3.2 14.5 0.00 0.00 0.00 56 1018.6
20260508171557 12 113 3.2 14.5 0.00 0.00 0.00 58 1018.6
20260508170100 12 153 3.2 14.5 0.00 0.00 0.00 58 1018.6
20260508164554 12 14 6.4 12.9 0.00 0.08 0.00 59 1018.6
20260508163106 12 39 4.8 12.9 0.00 0.08 0.00 57 1018.4
20260508161559 12 31 3.2 12.9 0.00 0.08 0.00 55 1018.4
20260508160056 12 224 1.6 14.5 0.00 0.08 0.00 52 1018.3
20260508154559 12 6 1.6 12.9 0.00 0.28 0.00 60 1018.4
20260508153107 12 12 4.8 11.3 0.00 0.28 0.00 56 1018.3
20260508151557 13 13 3.2 11.3 0.00 0.28 0.00 40 1018.1
20260508150056 13 34 1.6 6.4 0.00 0.28 0.00 47 1018.1
20260508144557 11 154 0.0 3.2 0.00 0.69 0.00 55 1018.1
20260508143116 10 187 1.6 4.8 0.00 0.69 0.00 62 1018.5
20260508141605 9 267 1.6 4.8 0.00 0.69 0.00 65 1018.7
20260508140115 9 0 0.0 1.6 0.00 0.69 0.00 67 1018.7
20260508134556 8 271 1.6 6.4 0.00 0.69 0.00 69 1018.9
20260508133102 8 273 0.0 4.8 0.00 0.69 0.00 71 1018.8
20260508131556 7 0 0.0 8.0 0.00 0.69 0.00 74 1018.9
20260508130057 6 214 1.6 12.9 0.00 0.69 0.00 83 1019.0
20260508124558 5 181 0.0 3.2 0.00 0.69 0.00 88 1019.2
20260508123054 3 0 0.0 1.6 0.00 0.69 0.00 87 1019.2
20260508121554 3 0 0.0 0.0 0.00 0.69 0.00 85 1019.2
20260508120112 3 0 0.0 1.6 0.00 0.69 0.00 85 1018.5
20260508114602 3 0 0.0 4.8 0.00 0.69 0.00 86 1017.8
20260508113109 3 0 0.0 3.2 0.00 0.69 0.00 86 1017.6
20260508111553 4 0 0.0 1.6 0.00 0.69 0.00 85 1017.6
20260508110103 3 0 0.0 0.0 0.00 0.69 0.00 84 1017.9
20260508104557 3 0 0.0 1.6 0.00 0.69 0.00 82 1017.8
20260508103100 5 117 0.0 4.8 0.00 0.69 0.00 72 1017.4
20260508101602 6 250 1.6 11.3 0.00 0.69 0.00 71 1016.7
20260508100129 4 240 1.6 4.8 0.00 0.69 0.00 81 1016.7
20260508094556 5 0 0.0 4.8 0.00 0.69 0.00 81 1016.5
20260508093056 5 235 1.6 11.3 0.00 0.69 0.00 82 1016.8
20260508091610 4 0 0.0 0.0 0.00 0.69 0.00 83 1016.5
20260508090056 5 248 0.0 1.6 0.00 0.69 0.00 83 1016.8
20260508084556 5 0 0.0 0.0 0.00 0.69 0.00 81 1017.0
20260508083056 5 0 0.0 3.2 0.00 0.69 0.00 80 1017.3
20260508081612 5 0 0.0 0.0 0.00 0.69 0.00 79 1017.4
20260508080100 5 0 0.0 1.6 0.00 0.69 0.00 77 1017.6
20260508074559 6 0 0.0 3.2 0.00 0.69 0.00 75 1017.7
20260508073106 5 0 0.0 1.6 0.00 0.69 0.00 75 1018.2
20260508071557 5 0 0.0 1.6 0.00 0.69 0.00 74 1017.8
20260508070056 6 0 1.6 4.8 0.00 0.69 0.00 72 1017.6
20260508064556 6 237 3.2 8.0 0.00 0.69 0.00 73 1017.4
20260508063101 5 0 0.0 1.6 0.00 0.69 0.00 74 1017.4
20260508061559 6 0 0.0 1.6 0.00 0.69 0.00 73 1017.6
20260508060111 7 0 3.2 9.7 0.00 0.69 0.00 68 1017.4
20260508054639 6 208 3.2 6.4 0.00 0.69 0.69 75 1017.5
20260508053055 6 212 3.2 8.0 0.00 0.69 0.69 76 1017.9
20260508051557 7 0 0.0 6.4 0.00 0.69 0.69 68 1018.4
20260508050059 7 0 0.0 6.4 0.00 0.69 0.69 67 1017.7
20260508044554 7 0 0.0 4.8 0.00 0.69 0.69 66 1017.6
20260508043059 7 29 0.0 9.7 0.00 0.69 0.69 63 1017.4
20260508041555 8 0 0.0 1.6 0.00 0.69 0.69 63 1017.2
20260508040058 8 203 0.0 1.6 0.00 0.69 0.69 64 1017.7
20260508034559 9 345 0.0 8.0 0.00 0.69 0.69 56 1018.0
20260508033055 9 0 0.0 3.2 0.00 0.69 0.69 52 1016.9
20260508031601 10 246 0.0 8.0 0.00 0.69 0.69 50 1016.5
20260508030104 10 0 0.0 6.4 0.00 0.69 0.69 52 1016.5
20260508024609 10 0 3.2 17.7 0.00 0.69 0.69 50 1016.5
20260508023057 9 207 8.0 20.9 0.00 0.69 0.69 56 1016.4
20260508021555 10 195 11.3 20.9 0.00 0.69 0.69 54 1016.4
20260508020105 11 135 8.0 22.5 0.00 0.69 0.69 47 1016.5
20260508014620 12 254 11.3 27.4 0.00 0.69 0.69 42 1016.5
20260508013101 12 219 1.6 4.8 0.00 0.69 0.69 38 1015.9
20260508011606 13 0 1.6 8.0 0.00 0.69 0.69 36 1015.9
20260508004557 13 0 0.0 0.0 0.00 0.69 0.69 36 1015.6